sat.trackr.live / text

‹ back to catalog

STARLINK-2742

NORAD 48688 · 2021-044BC

PAYLOAD ACTIVE UNKNOWN

§ Identity

Operator
Country
US
Launch date
2021-05-26
Launch site
AFETR
Launch vehicle
Mass (kg)
RCS (m²)

Purposes: comms

External: N2YO · Heavens-Above · Gunter

§ Orbital elements

Epoch: 2026-09-19T13:31:48.378432Z

Period
94.01 min
Inclination
53.1593°
Eccentricity
0.0001342
Mean motion
15.31704735 rev/d
Perigee alt
469.8 km
Apogee alt
471.6 km
Semi-major
6,848.9 km
B*
5.5825e-5
RAAN
242.9324°
Arg perigee
82.8376°
Mean anomaly
277.2778°
Rev number
29,420

§ Raw data

STARLINK-27421 48688U 21044BC  26262.56375438  .00001368  00000+0  55825-4 0  99902 48688  53.1593 242.9324 0001342  82.8376 277.2778 15.31704735294205

JSON: /api/v1/satellites/48688 · /tle

For live sub-satellite position, see the globe view (requires WebGL).

§ Visibility from observer

Set your observer location to see the next 7 days of passes ≥ 10°. The values pass through the URL so the page stays shareable.

No JS? Fill the form by hand. The geolocation button needs JavaScript.